Location: Asheville, NC
(35.6000°N, 82.5500°W)
Time: 03:01:58
(UTC-04:00)

Vanguard 1 Rocket - Pass Details

Date: 14 December 2017
Orbit: 654 x 4223 km, 34.3° (Epoch: 21 April)

Event Time Altitude Azimuth Distance (km) Brightness Sun altitude
Rises 18:34:07 0° 260° (W) 4,521 12.8 -15.0°
Reaches altitude 10° 18:36:30 10° 260° (W) 3,849 12.0 -15.5°
Maximum altitude 18:47:21 84° 173° (S) 2,530 9.5 -17.6°
Enters shadow 19:02:27 23° 89° (E) 5,540 10.7 -20.5°
Drops below altitude 10° 19:09:01 10° 89° (E) 7,015 - -21.8°
Sets 19:15:14 0° 89° (E) 8,312 - -23.1°
